Time,TemperatureF,DewpointF,PressureIn,WindDirection,WindDirectionDegrees,WindSpeedMPH,WindSpeedGustMPH,Humidity,HourlyPrecipIn,Conditions,Clouds,dailyrainin,SoftwareType,DateUTC
2013-02-14 00:08:00,39.4,26.6,30.12,NE,45,0.0,0.0,60,0.00,,,0.00,WUHU216HW,2013-02-14 07:08:00,
2013-02-14 00:18:00,39.1,26.3,30.12,West,270,0.0,0.0,60,0.00,,,0.00,WUHU216HW,2013-02-14 07:18:00,
2013-02-14 00:28:00,38.5,26.6,30.12,ENE,68,0.0,0.0,62,0.00,,,0.00,WUHU216HW,2013-02-14 07:28:00,
2013-02-14 00:38:00,38.2,26.7,30.12,East,90,0.0,0.0,63,0.00,,,0.00,WUHU216HW,2013-02-14 07:38:00,
2013-02-14 00:48:00,37.8,26.3,30.11,SW,225,0.0,0.4,63,0.00,,,0.00,WUHU216HW,2013-02-14 07:48:00,
2013-02-14 00:58:00,37.1,25.7,30.11,SE,135,0.0,0.0,63,0.00,,,0.00,WUHU216HW,2013-02-14 07:58:00,
2013-02-14 01:08:00,36.7,25.7,30.10,ESE,113,0.0,0.0,64,0.00,,,0.00,WUHU216HW,2013-02-14 08:08:00,
2013-02-14 01:18:00,36.4,25.8,30.10,ESE,113,0.7,0.7,65,0.00,,,0.00,WUHU216HW,2013-02-14 08:18:00,
2013-02-14 01:28:00,36.2,25.9,30.10,ESE,113,0.7,0.7,66,0.00,,,0.00,WUHU216HW,2013-02-14 08:28:00,
2013-02-14 01:39:00,36.0,25.8,30.10,SE,135,0.0,0.4,66,0.00,,,0.00,WUHU216HW,2013-02-14 08:39:00,
2013-02-14 01:49:00,35.6,25.7,30.10,WSW,248,0.0,0.4,67,0.00,,,0.00,WUHU216HW,2013-02-14 08:49:00,
2013-02-14 01:59:00,35.5,25.6,30.10,NNE,23,0.0,0.0,67,0.00,,,0.00,WUHU216HW,2013-02-14 08:59:00,
2013-02-14 02:09:00,35.1,25.6,30.11,NE,45,0.0,0.2,68,0.00,,,0.00,WUHU216HW,2013-02-14 09:09:00,
2013-02-14 02:19:00,34.9,25.7,30.10,NE,45,0.0,0.4,69,0.00,,,0.00,WUHU216HW,2013-02-14 09:19:00,
2013-02-14 02:30:00,34.7,25.6,30.10,ESE,113,0.0,0.0,69,0.00,,,0.00,WUHU216HW,2013-02-14 09:30:00,
2013-02-14 02:40:00,34.7,25.6,30.10,SW,225,0.0,0.4,69,0.00,,,0.00,WUHU216HW,2013-02-14 09:40:00,
2013-02-14 02:50:00,34.4,25.2,30.10,SSE,158,0.2,0.9,69,0.00,,,0.00,WUHU216HW,2013-02-14 09:50:00,
2013-02-14 03:00:00,33.8,25.0,30.11,SSW,203,0.2,0.2,70,0.00,,,0.00,WUHU216HW,2013-02-14 10:00:00,
2013-02-14 03:10:00,33.7,24.5,30.11,East,90,0.4,0.4,69,0.00,,,0.00,WUHU216HW,2013-02-14 10:10:00,
2013-02-14 03:20:00,33.5,24.7,30.12,ESE,113,0.0,0.9,70,0.00,,,0.00,WUHU216HW,2013-02-14 10:20:00,
2013-02-14 03:30:00,33.5,25.0,30.12,ESE,113,0.7,1.1,71,0.00,,,0.00,WUHU216HW,2013-02-14 10:30:00,
2013-02-14 03:40:00,33.3,24.8,30.12,ENE,68,0.0,0.4,71,0.00,,,0.00,WUHU216HW,2013-02-14 10:40:00,
2013-02-14 03:50:00,33.3,24.8,30.12,SSE,158,0.2,0.4,71,0.00,,,0.00,WUHU216HW,2013-02-14 10:50:00,
2013-02-14 04:00:00,33.1,24.7,30.12,SSE,158,0.4,0.7,71,0.00,,,0.00,WUHU216HW,2013-02-14 11:00:00,
2013-02-14 04:10:00,32.9,24.6,30.12,SE,135,0.2,0.4,71,0.00,,,0.00,WUHU216HW,2013-02-14 11:10:00,
2013-02-14 04:20:00,32.8,24.4,30.12,ESE,113,0.9,0.9,71,0.00,,,0.00,WUHU216HW,2013-02-14 11:20:00,
2013-02-14 04:30:00,32.6,24.8,30.11,ESE,113,2.2,2.2,73,0.00,,,0.00,WUHU216HW,2013-02-14 11:30:00,
2013-02-14 04:40:00,32.6,24.8,30.11,ESE,113,0.0,1.6,73,0.00,,,0.00,WUHU216HW,2013-02-14 11:40:00,
2013-02-14 04:50:00,32.6,24.8,30.12,ESE,113,0.0,0.0,73,0.00,,,0.00,WUHU216HW,2013-02-14 11:50:00,
2013-02-14 05:00:00,32.4,24.7,30.12,ESE,113,0.0,0.0,73,0.00,,,0.00,WUHU216HW,2013-02-14 12:00:00,
2013-02-14 05:11:00,32.2,24.6,30.12,SE,135,0.0,0.0,73,0.00,,,0.00,WUHU216HW,2013-02-14 12:11:00,
2013-02-14 05:21:00,32.0,24.4,30.12,WSW,248,0.0,0.7,73,0.00,,,0.00,WUHU216HW,2013-02-14 12:21:00,
2013-02-14 05:31:00,31.7,24.0,30.11,SE,135,0.0,0.0,73,0.00,,,0.00,WUHU216HW,2013-02-14 12:31:00,
2013-02-14 05:41:00,31.5,24.1,30.11,SE,135,0.9,1.1,74,0.00,,,0.00,WUHU216HW,2013-02-14 12:41:00,
2013-02-14 05:51:00,31.3,24.3,30.12,SE,135,0.9,1.8,75,0.00,,,0.00,WUHU216HW,2013-02-14 12:51:00,
2013-02-14 06:01:00,31.3,24.3,30.11,SE,135,1.1,2.2,75,0.00,,,0.00,WUHU216HW,2013-02-14 13:01:00,
2013-02-14 06:11:00,31.1,24.5,30.11,SE,135,0.2,1.1,76,0.00,,,0.00,WUHU216HW,2013-02-14 13:11:00,
2013-02-14 06:21:00,31.3,24.7,30.11,SW,225,0.0,0.4,76,0.00,,,0.00,WUHU216HW,2013-02-14 13:21:00,
2013-02-14 06:31:00,31.3,24.3,30.10,WSW,248,0.0,0.0,75,0.00,,,0.00,WUHU216HW,2013-02-14 13:31:00,
2013-02-14 06:41:00,31.0,23.9,30.10,WNW,293,0.0,0.2,75,0.00,,,0.00,WUHU216HW,2013-02-14 13:41:00,
2013-02-14 06:51:00,30.8,24.1,30.10,NNW,338,0.4,0.7,76,0.00,,,0.00,WUHU216HW,2013-02-14 13:51:00,
2013-02-14 07:01:00,30.6,24.0,30.10,North,0,0.7,0.7,76,0.00,,,0.00,WUHU216HW,2013-02-14 14:01:00,
2013-02-14 07:11:00,30.8,24.4,30.11,ENE,68,0.0,1.6,77,0.00,,,0.00,WUHU216HW,2013-02-14 14:11:00,
2013-02-14 07:21:00,31.0,24.6,30.10,SE,135,0.0,0.2,77,0.00,,,0.00,WUHU216HW,2013-02-14 14:21:00,
2013-02-14 07:32:00,31.0,24.3,30.10,SW,225,0.0,0.2,76,0.00,,,0.00,WUHU216HW,2013-02-14 14:32:00,
2013-02-14 07:42:00,31.1,24.8,30.11,SSE,158,0.7,1.3,77,0.00,,,0.00,WUHU216HW,2013-02-14 14:42:00,
2013-02-14 07:52:00,31.3,24.9,30.12,East,90,0.4,1.3,77,0.00,,,0.00,WUHU216HW,2013-02-14 14:52:00,
2013-02-14 08:02:00,32.0,26.0,30.13,North,0,0.0,0.9,78,0.00,,,0.00,WUHU216HW,2013-02-14 15:02:00,
2013-02-14 08:12:00,33.3,27.5,30.12,NNE,23,0.4,1.1,79,0.00,,,0.00,WUHU216HW,2013-02-14 15:12:00,
2013-02-14 08:22:00,34.7,28.5,30.12,NNW,338,0.4,2.5,78,0.00,,,0.00,WUHU216HW,2013-02-14 15:22:00,
2013-02-14 08:32:00,35.6,28.8,30.12,SSE,158,0.0,0.2,76,0.00,,,0.00,WUHU216HW,2013-02-14 15:32:00,
2013-02-14 08:42:00,36.4,29.2,30.12,SW,225,0.7,1.1,75,0.00,,,0.00,WUHU216HW,2013-02-14 15:42:00,
2013-02-14 08:52:00,37.1,29.9,30.12,WSW,248,0.7,1.3,75,0.00,,,0.00,WUHU216HW,2013-02-14 15:52:00,
2013-02-14 09:02:00,38.0,30.4,30.12,SW,225,1.1,1.1,74,0.00,,,0.00,WUHU216HW,2013-02-14 16:02:00,
2013-02-14 09:12:00,38.7,31.2,30.13,SW,225,0.7,1.1,74,0.00,,,0.00,WUHU216HW,2013-02-14 16:12:00,
2013-02-14 09:22:00,40.0,31.6,30.12,West,270,1.1,2.0,72,0.00,,,0.00,WUHU216HW,2013-02-14 16:22:00,
2013-02-14 09:33:00,41.4,32.4,30.13,SW,225,0.2,1.6,70,0.00,,,0.00,WUHU216HW,2013-02-14 16:33:00,
2013-02-14 09:43:00,42.5,32.3,30.13,NNW,338,1.8,2.5,67,0.00,,,0.00,WUHU216HW,2013-02-14 16:43:00,
2013-02-14 09:53:00,43.9,32.5,30.12,WSW,248,0.2,2.0,64,0.00,,,0.00,WUHU216HW,2013-02-14 16:53:00,
2013-02-14 10:03:00,44.8,32.9,30.11,SSE,158,1.1,1.8,63,0.00,,,0.00,WUHU216HW,2013-02-14 17:03:00,
2013-02-14 10:13:00,45.7,32.7,30.12,East,90,0.4,2.5,60,0.00,,,0.00,WUHU216HW,2013-02-14 17:13:00,
2013-02-14 10:23:00,46.8,32.8,30.12,SW,225,1.1,1.1,58,0.00,,,0.00,WUHU216HW,2013-02-14 17:23:00,
2013-02-14 10:33:00,47.9,32.9,30.13,WSW,248,0.7,2.5,56,0.00,,,0.00,WUHU216HW,2013-02-14 17:33:00,
2013-02-14 10:43:00,49.0,32.9,30.12,SW,225,0.4,2.5,54,0.00,,,0.00,WUHU216HW,2013-02-14 17:43:00,
2013-02-14 10:53:00,49.5,32.6,30.12,WSW,248,1.8,1.8,52,0.00,,,0.00,WUHU216HW,2013-02-14 17:53:00,
2013-02-14 11:03:00,50.8,32.9,30.12,West,270,1.6,1.8,50,0.00,,,0.00,WUHU216HW,2013-02-14 18:03:00,
2013-02-14 11:13:00,51.8,33.3,30.11,SE,135,2.7,2.7,49,0.00,,,0.00,WUHU216HW,2013-02-14 18:13:00,
2013-02-14 11:23:00,52.6,32.2,30.10,NW,315,1.1,2.5,46,0.00,,,0.00,WUHU216HW,2013-02-14 18:23:00,
2013-02-14 11:33:00,53.5,33.0,30.10,SW,225,1.8,2.5,46,0.00,,,0.00,WUHU216HW,2013-02-14 18:33:00,
2013-02-14 11:43:00,54.4,32.8,30.10,SW,225,1.6,3.1,44,0.00,,,0.00,WUHU216HW,2013-02-14 18:43:00,
2013-02-14 11:53:00,55.1,32.3,30.10,WNW,293,1.1,4.5,42,0.00,,,0.00,WUHU216HW,2013-02-14 18:53:00,
2013-02-14 12:03:00,56.0,30.6,30.11,West,270,4.7,4.7,38,0.00,,,0.00,WUHU216HW,2013-02-14 19:03:00,
2013-02-14 12:13:00,56.7,29.8,30.11,SW,225,2.0,6.3,36,0.00,,,0.00,WUHU216HW,2013-02-14 19:13:00,
2013-02-14 12:23:00,57.4,31.1,30.13,WSW,248,3.4,5.4,37,0.00,,,0.00,WUHU216HW,2013-02-14 19:23:00,
2013-02-14 12:33:00,58.3,32.0,30.13,North,0,4.0,6.5,37,0.00,,,0.00,WUHU216HW,2013-02-14 19:33:00,
2013-02-14 12:43:00,58.7,30.3,30.12,WNW,293,2.9,5.1,34,0.00,,,0.00,WUHU216HW,2013-02-14 19:43:00,
2013-02-14 12:54:00,58.9,30.3,30.10,SSW,203,1.6,5.1,34,0.00,,,0.00,WUHU216HW,2013-02-14 19:54:00,
2013-02-14 13:04:00,59.0,30.5,30.09,WSW,248,0.7,4.0,34,0.00,,,0.00,WUHU216HW,2013-02-14 20:04:00,
2013-02-14 13:14:00,59.4,30.9,30.08,NNW,338,1.6,4.0,34,0.00,,,0.00,WUHU216HW,2013-02-14 20:14:00,
2013-02-14 13:24:00,59.8,30.4,30.07,SW,225,1.1,3.4,33,0.00,,,0.00,WUHU216HW,2013-02-14 20:24:00,
2013-02-14 13:34:00,60.1,29.4,30.06,NNE,23,0.4,3.4,31,0.00,,,0.00,WUHU216HW,2013-02-14 20:34:00,
2013-02-14 13:44:00,60.5,31.1,30.05,SE,135,3.1,4.9,33,0.00,,,0.00,WUHU216HW,2013-02-14 20:44:00,
2013-02-14 13:54:00,60.8,30.6,30.05,NNW,338,0.7,3.8,32,0.00,,,0.00,WUHU216HW,2013-02-14 20:54:00,
2013-02-14 14:04:00,61.6,29.8,30.04,NW,315,1.1,4.7,30,0.00,,,0.00,WUHU216HW,2013-02-14 21:04:00,
2013-02-14 14:14:00,62.1,30.3,30.04,SW,225,3.4,4.5,30,0.00,,,0.00,WUHU216HW,2013-02-14 21:14:00,
2013-02-14 14:24:00,62.3,29.5,30.04,SW,225,4.7,4.7,29,0.00,,,0.00,WUHU216HW,2013-02-14 21:24:00,
2013-02-14 14:34:00,62.5,29.6,30.04,NW,315,3.1,5.4,29,0.00,,,0.00,WUHU216HW,2013-02-14 21:34:00,
2013-02-14 14:44:00,62.8,30.0,30.04,WSW,248,2.0,3.4,29,0.00,,,0.00,WUHU216HW,2013-02-14 21:44:00,
2013-02-14 14:55:00,63.0,29.2,30.04,WSW,248,1.8,5.1,28,0.00,,,0.00,WUHU216HW,2013-02-14 21:55:00,
2013-02-14 15:05:00,63.2,29.4,30.03,WNW,293,1.8,5.4,28,0.00,,,0.00,WUHU216HW,2013-02-14 22:05:00,
2013-02-14 15:15:00,63.5,29.6,30.03,WSW,248,3.6,4.3,28,0.00,,,0.00,WUHU216HW,2013-02-14 22:15:00,
2013-02-14 15:25:00,63.7,29.8,30.03,SE,135,2.5,5.1,28,0.00,,,0.00,WUHU216HW,2013-02-14 22:25:00,
2013-02-14 15:35:00,63.9,30.0,30.03,NNW,338,0.9,4.3,28,0.00,,,0.00,WUHU216HW,2013-02-14 22:35:00,
2013-02-14 15:45:00,63.9,29.0,30.03,WNW,293,0.4,6.3,27,0.00,,,0.00,WUHU216HW,2013-02-14 22:45:00,
2013-02-14 15:55:00,64.1,30.1,30.03,SSW,203,0.7,6.3,28,0.00,,,0.00,WUHU216HW,2013-02-14 22:55:00,
2013-02-14 16:05:00,63.9,29.0,30.03,WNW,293,6.7,6.7,27,0.00,,,0.00,WUHU216HW,2013-02-14 23:05:00,
2013-02-14 16:15:00,63.9,30.0,30.02,WNW,293,2.5,4.5,28,0.00,,,0.00,WUHU216HW,2013-02-14 23:15:00,
2013-02-14 16:25:00,64.1,31.1,30.02,WSW,248,3.1,4.9,29,0.00,,,0.00,WUHU216HW,2013-02-14 23:25:00,
2013-02-14 16:35:00,63.7,30.8,30.02,WSW,248,0.4,3.8,29,0.00,,,0.00,WUHU216HW,2013-02-14 23:35:00,
2013-02-14 16:45:00,63.7,29.8,30.02,SSW,203,1.8,3.8,28,0.00,,,0.00,WUHU216HW,2013-02-14 23:45:00,
2013-02-14 16:55:00,63.5,30.6,30.02,West,270,3.4,4.0,29,0.00,,,0.00,WUHU216HW,2013-02-14 23:55:00,
2013-02-14 17:05:00,63.5,30.6,30.02,West,270,2.0,5.8,29,0.00,,,0.00,WUHU216HW,2013-02-15 00:05:00,
2013-02-14 17:15:00,63.4,29.4,30.02,West,270,1.8,3.6,28,0.00,,,0.00,WUHU216HW,2013-02-15 00:15:00,
2013-02-14 17:26:00,63.0,30.2,30.02,West,270,4.5,4.9,29,0.00,,,0.00,WUHU216HW,2013-02-15 00:26:00,
2013-02-14 17:36:00,62.3,30.4,30.01,WSW,248,1.8,3.1,30,0.00,,,0.00,WUHU216HW,2013-02-15 00:36:00,
2013-02-14 17:46:00,61.7,29.0,30.02,West,270,1.1,3.4,29,0.00,,,0.00,WUHU216HW,2013-02-15 00:46:00,
2013-02-14 17:56:00,61.4,28.7,30.01,WSW,248,2.0,4.3,29,0.00,,,0.00,WUHU216HW,2013-02-15 00:56:00,
2013-02-14 18:06:00,60.5,28.9,30.01,WNW,293,2.5,4.9,30,0.00,,,0.00,WUHU216HW,2013-02-15 01:06:00,
2013-02-14 18:16:00,60.1,28.6,30.02,West,270,1.6,4.9,30,0.00,,,0.00,WUHU216HW,2013-02-15 01:16:00,
2013-02-14 18:26:00,59.4,28.7,30.02,WSW,248,2.0,2.7,31,0.00,,,0.00,WUHU216HW,2013-02-15 01:26:00,
2013-02-14 18:36:00,58.9,29.0,30.02,NW,315,1.3,3.4,32,0.00,,,0.00,WUHU216HW,2013-02-15 01:36:00,
2013-02-14 18:46:00,58.1,29.0,30.02,WNW,293,1.6,3.4,33,0.00,,,0.00,WUHU216HW,2013-02-15 01:46:00,
2013-02-14 18:56:00,57.8,29.4,30.03,WNW,293,0.2,2.7,34,0.00,,,0.00,WUHU216HW,2013-02-15 01:56:00,
2013-02-14 19:06:00,57.1,28.7,30.03,WSW,248,0.2,0.9,34,0.00,,,0.00,WUHU216HW,2013-02-15 02:06:00,
2013-02-14 19:16:00,56.3,29.5,30.03,NW,315,0.2,0.7,36,0.00,,,0.00,WUHU216HW,2013-02-15 02:16:00,
2013-02-14 19:26:00,55.4,29.4,30.03,North,0,0.0,0.7,37,0.00,,,0.00,WUHU216HW,2013-02-15 02:26:00,
2013-02-14 19:36:00,54.4,29.2,30.04,ESE,113,1.1,1.1,38,0.00,,,0.00,WUHU216HW,2013-02-15 02:36:00,
2013-02-14 19:46:00,53.3,28.9,30.04,East,90,0.9,1.8,39,0.00,,,0.00,WUHU216HW,2013-02-15 02:46:00,
2013-02-14 19:56:00,52.6,28.9,30.05,SE,135,2.2,3.6,40,0.00,,,0.00,WUHU216HW,2013-02-15 02:56:00,
2013-02-14 20:06:00,52.2,29.2,30.05,SSW,203,0.0,1.8,41,0.00,,,0.00,WUHU216HW,2013-02-15 03:06:00,
2013-02-14 20:17:00,51.8,28.8,30.05,East,90,0.0,0.7,41,0.00,,,0.00,WUHU216HW,2013-02-15 03:17:00,
2013-02-14 20:27:00,51.1,29.3,30.06,ESE,113,0.9,1.1,43,0.00,,,0.00,WUHU216HW,2013-02-15 03:27:00,
2013-02-14 20:37:00,50.4,28.6,30.06,SE,135,1.6,1.6,43,0.00,,,0.00,WUHU216HW,2013-02-15 03:37:00,
2013-02-14 20:47:00,49.7,28.5,30.07,East,90,0.9,2.7,44,0.00,,,0.00,WUHU216HW,2013-02-15 03:47:00,
2013-02-14 20:57:00,49.3,28.7,30.07,ESE,113,1.8,2.5,45,0.00,,,0.00,WUHU216HW,2013-02-15 03:57:00,
2013-02-14 21:08:00,48.8,28.8,30.07,East,90,1.3,3.1,46,0.00,,,0.00,WUHU216HW,2013-02-15 04:08:00,
2013-02-14 21:18:00,48.6,28.6,30.08,East,90,0.9,1.8,46,0.00,,,0.00,WUHU216HW,2013-02-15 04:18:00,
2013-02-14 21:28:00,48.1,28.6,30.09,ESE,113,2.0,2.0,47,0.00,,,0.00,WUHU216HW,2013-02-15 04:28:00,
2013-02-14 21:38:00,47.7,28.4,30.08,SE,135,1.1,1.6,47,0.00,,,0.00,WUHU216HW,2013-02-15 04:38:00,
2013-02-14 21:48:00,47.3,28.5,30.09,SE,135,0.9,1.6,48,0.00,,,0.00,WUHU216HW,2013-02-15 04:48:00,
2013-02-14 21:58:00,46.8,28.6,30.09,ENE,68,0.2,0.4,49,0.00,,,0.00,WUHU216HW,2013-02-15 04:58:00,
2013-02-14 22:08:00,46.4,28.3,30.10,ENE,68,0.0,0.0,49,0.00,,,0.00,WUHU216HW,2013-02-15 05:08:00,
2013-02-14 22:18:00,46.1,28.9,30.10,ENE,68,0.0,0.4,51,0.00,,,0.00,WUHU216HW,2013-02-15 05:18:00,
2013-02-14 22:28:00,45.7,28.6,30.11,NNE,23,1.6,1.6,51,0.00,,,0.00,WUHU216HW,2013-02-15 05:28:00,
2013-02-14 22:39:00,45.4,28.7,30.11,NE,45,0.4,1.6,52,0.00,,,0.00,WUHU216HW,2013-02-15 05:39:00,
2013-02-14 22:49:00,45.4,29.2,30.11,NW,315,0.9,0.9,53,0.00,,,0.00,WUHU216HW,2013-02-15 05:49:00,
2013-02-14 23:00:00,45.0,29.4,30.12,ESE,113,0.0,1.6,54,0.00,,,0.00,WUHU216HW,2013-02-15 06:00:00,
2013-02-14 23:10:00,44.6,28.5,30.11,SE,135,0.0,0.9,53,0.00,,,0.00,WUHU216HW,2013-02-15 06:10:00,
2013-02-14 23:22:00,44.3,28.6,30.11,ESE,113,0.4,1.1,54,0.00,,,0.00,WUHU216HW,2013-02-15 06:22:00,
2013-02-14 23:32:00,43.7,28.6,30.11,SE,135,0.2,0.4,55,0.00,,,0.00,WUHU216HW,2013-02-15 06:32:00,
2013-02-14 23:42:00,43.6,28.8,30.11,NNE,23,0.0,0.4,56,0.00,,,0.00,WUHU216HW,2013-02-15 06:42:00,
2013-02-14 23:52:00,43.2,28.9,30.11,SE,135,0.2,0.7,57,0.00,,,0.00,WUHU216HW,2013-02-15 06:52:00,